Location: Kuppenheim
(48.8299°N, 8.2568°E)
Time: 19:18:20
(UTC+00:00)

Cosmos 1356 - Visible Passes

Search period start: 21 October 2021 00:00
Search period end: 31 October 2021 00:00
Orbit: 434 x 438 km, 81.1° (Epoch: 21 October)

Date Brightness Start Highest point End Pass type
(mag) Time Alt. Az. Time Alt. Az. Time Alt. Az.
21 Oct 7.6 04:48:31 10° E 04:48:40 10° E 04:48:48 10° E visible
21 Oct 6.7 17:34:37 10° NW 17:37:01 18° W 17:39:25 10° SW visible
22 Oct 4.9 16:54:12 10° NNW 16:57:26 41° W 17:00:39 10° SSW visible
23 Oct 6.3 05:00:16 10° SE 05:02:58 23° E 05:05:43 10° NE visible
24 Oct 7.4 04:22:53 10° E 04:23:29 10° E 04:24:05 10° ENE visible
24 Oct 6.7 17:09:28 10° NW 17:11:50 18° W 17:14:10 10° SW visible
25 Oct 4.1 05:14:06 10° S 05:17:25 57° E 05:20:45 10° NNE visible
26 Oct 6.1 04:35:00 10° SSE 04:37:45 24° E 04:40:31 10° NE visible
27 Oct 7.2 03:57:24 10° E 03:58:13 11° E 03:59:02 10° ENE visible
27 Oct 3.5 05:28:39 10° SSW 05:31:57 53° WNW 05:35:17 10° N visible
27 Oct 6.6 16:44:14 10° NW 16:46:33 17° W 16:48:51 10° SW visible
28 Oct 4.0 04:48:49 10° S 04:52:08 59° E 04:55:28 10° NNE visible
29 Oct 5.9 04:09:39 10° SSE 04:12:26 24° E 04:15:14 10° NE visible
30 Oct 7.0 03:31:53 10° ESE 03:32:52 11° E 03:33:51 10° ENE visible
30 Oct 3.5 05:03:19 10° SSW 05:06:37 51° WNW 05:09:57 10° N visible
